[[{"header":{"parameterUnit":"m.s-1","parameterCategory":1,"la1":30.2991,"la2":30.254,"lo1":-89.0895,"lo2":-89.0444,"dy":0.0017,"dx":0.0017,"nx":28,"ny":28,"refTime":"2025-06-13T21:00:00:Z","depth":0,"parameterNumber":2,"parameterNumberName":"U-component_of_WINDS"},"data":[0,0,0,0,0,0,0,0,0,0,0,0,0,0,0,0,0,0,0,0,0,0,0,0,0,0,0,0,0,0,0,0,0,0,0,0,0,0,0,0,0,0,0,0,0,0,0,0,0,0,0,0,0,0,0,0,0,0,2.6238,2.6239,0,2.6267,2.6268,2.6268,2.6264,2.6263,2.6263,2.6262,2.6293,2.6294,2.6295,0,0,0,0,0,0,0,0,0,0,0,0,0,2.618,2.6181,2.6238,2.6239,2.6239,2.6267,2.6268,2.6268,2.6264,2.6263,2.6263,2.6262,2.6292,2.6294,2.6295,0,0,0,0,0,0,0,0,0,0,0,0,0,2.6207,2.6181,2.6238,2.624,2.6241,2.6267,2.6268,2.6268,2.6264,2.6263,2.6263,2.6262,2.6292,2.6294,2.6296,2.6322,0,0,2.6302,2.6302,0,0,0,0,0,0,0,0,2.6205,2.6209,2.624,2.624,2.6241,2.6261,2.6258,2.6286,2.6264,2.6255,2.6262,2.6261,2.6283,2.6286,2.6293,2.6324,2.6325,2.6302,2.6303,2.6304,2.6304,0,0,0,0,0,0,0,2.6203,2.6208,2.625,2.624,2.6241,2.624,2.6243,2.6264,2.6273,2.6256,2.6256,2.6259,2.6283,2.6291,2.6293,2.6325,2.6302,2.6303,2.6305,2.6305,2.638,2.6381,0,0,0,0,0,0,2.6201,2.6206,2.6249,2.6251,2.6221,2.6242,2.6245,2.6255,2.6273,2.6275,2.626,2.6259,2.6288,2.6291,2.6294,2.6327,2.6304,2.6305,2.6307,2.6379,2.638,2.6381,0,0,0,0,0,0,2.62,2.6205,2.6248,2.6228,2.6234,2.6244,2.6255,2.6256,2.6264,2.6276,2.6277,2.6266,2.6288,2.6292,2.6315,2.6328,2.6306,2.6308,2.6378,2.638,2.6381,2.6391,0,0,0,0,0,0,2.6198,2.6204,2.6214,2.6229,2.6235,2.6268,2.6256,2.6258,2.6267,2.6266,2.6282,2.6284,2.6287,2.6313,2.6317,2.633,2.631,2.6377,2.6379,2.638,2.639,2.6392,2.6395,0,0,0,0,0,2.6196,2.6216,2.6215,2.622,2.6247,2.6269,2.6272,2.6276,2.6268,2.6278,2.6286,2.6283,2.6326,2.6315,2.632,2.6334,2.6377,2.6379,2.638,2.6388,2.6392,2.6395,0,0,0,0,0,0,2.6202,2.6218,2.6216,2.6242,2.6254,2.6268,2.628,2.6279,2.6294,2.6292,2.6297,2.63,2.6324,2.6331,2.6319,2.636,2.635,2.6353,2.6354,2.6358,2.6361,2.6358,2.6311,0,0,0,0,0,2.6206,2.6222,2.6235,2.6256,2.6262,2.6271,2.628,2.6282,2.6295,2.63,2.6309,2.6322,2.6338,2.6349,2.6364,2.6391,2.6394,2.6403,2.6406,2.6408,2.641,2.6425,2.6429,2.6388,2.6388,2.6388,0,0,2.6215,2.6226,2.6236,2.6258,2.6267,2.6284,2.6275,2.6292,2.6305,2.6302,2.6325,2.6333,2.6347,2.6373,2.6384,2.6379,2.6422,2.641,2.6412,2.6413,2.6427,2.6431,2.6435,2.6389,2.6389,2.6388,0,0,2.624,2.625,2.6268,2.6278,2.6293,2.6299,2.6303,2.6318,2.6323,2.6346,2.6344,2.6359,2.6387,2.6398,2.6407,2.6437,2.6435,2.6442,2.6455,2.647,2.6473,2.6476,2.6486,2.649,2.6445,2.6445,2.6445,0,2.6249,2.6274,2.6278,2.6296,2.6306,2.6305,2.6324,2.6334,2.6353,2.636,2.6354,2.639,2.64,2.6427,2.6435,2.6442,2.6448,2.644,2.6472,2.6475,2.6478,2.6488,2.6492,2.6445,2.6445,2.6445,2.6445,0,2.6284,2.6301,2.6315,2.6333,2.6345,2.6363,2.6371,2.6382,2.6384,2.639,2.6414,2.6426,2.6444,2.6451,2.6452,2.6479,2.6476,2.6471,2.6461,2.6483,2.6492,2.6496,2.6446,2.6446,2.6446,2.6446,0,0,2.6312,2.6334,2.6338,2.6347,2.6364,2.6378,2.6397,2.6414,2.6424,2.6438,2.6453,2.6478,2.6474,2.6484,2.6487,2.65,2.6523,2.6494,2.6495,2.6499,2.6553,2.6555,2.656,2.6522,2.6523,2.6524,2.6551,0,2.6337,2.637,2.6376,2.6405,2.6421,2.6421,2.6437,2.645,2.6457,2.6471,2.6479,2.6496,2.649,2.6496,2.6509,2.6517,2.6534,2.6516,2.6537,2.6537,2.6532,2.6565,2.6567,2.6593,2.6555,2.6556,2.6556,0,2.6371,2.6386,2.6417,2.6433,2.6439,2.6454,2.6471,2.6485,2.65,2.6504,2.6516,2.6518,2.6537,2.6527,2.6555,2.6542,2.6552,2.6557,2.6558,2.6559,2.6547,2.6566,2.6601,2.6605,2.6562,2.6562,2.6561,0,2.6388,2.6416,2.6438,2.6445,2.6464,2.6474,2.6483,2.6497,2.6507,2.6522,2.6529,2.6547,2.6556,2.657,2.6576,2.6568,2.6603,2.6593,2.6607,2.6607,2.6613,2.6612,2.6649,2.6621,2.6621,2.6621,2.6621,0,2.6415,2.6434,2.6445,2.6459,2.648,2.6486,2.6507,2.6515,2.6528,2.6543,2.6545,2.6559,2.6567,2.6583,2.6588,2.661,2.6614,2.6618,2.6619,2.6617,2.6617,2.6623,2.6621,2.6622,2.6622,2.6621,2.6621,0,2.6436,2.6445,2.6469,2.6485,2.649,2.6505,2.6519,2.6532,2.6539,2.6558,2.6563,2.6575,2.6593,2.6601,2.6624,2.6628,2.6653,2.6653,2.6648,2.6648,2.666,2.6659,2.6702,2.6707,2.6676,2.6676,2.6676,0,2.6453,2.6467,2.6485,2.6496,2.6505,2.6521,2.6532,2.654,2.6551,2.6569,2.658,2.6599,2.6614,2.6644,2.6654,2.6672,2.6672,2.6686,2.6674,2.6672,2.6671,2.667,2.6671,2.6687,2.6688,2.6688,2.6688,0,2.6481,2.6485,2.6501,2.6518,2.6531,2.6546,2.6559,2.6568,2.6577,2.659,2.6609,2.6621,2.6645,2.6663,2.6682,2.669,2.6691,2.6692,2.6696,2.6693,2.6689,2.6691,2.6652,2.669,2.669,2.669,2.669,2.669,2.65,2.6513,2.6528,2.6546,2.6557,2.657,2.6583,2.6593,2.6609,2.6628,2.6632,2.6652,2.6667,2.6692,2.6702,2.6718,2.6714,2.672,2.6721,2.6722,2.6723,2.6688,2.6721,2.6721,2.6721,2.6721,2.6721,0,2.6527,2.6537,2.6554,2.6573,2.6588,2.6587,2.6603,2.6615,2.6633,2.6647,2.6662,2.6684,2.6702,2.6714,2.6733,2.6743,2.6744,2.6748,2.6746,2.6748,2.6725,2.6719,2.6747,2.6747,2.6747,2.6747,2.6747,2.6747,2.6543,2.6565,2.6571,2.6599,2.6609,2.6629,2.6638,2.665,2.6661,2.6686,2.6701,2.6709,2.6722,2.6742,2.6759,2.6762,2.6768,2.6772,2.6775,2.6753,2.675,2.6747,2.6742,2.6774,2.6774,2.6797,2.6797,2.6797]},{"header":{"parameterUnit":"m.s-1","parameterCategory":1,"la1":30.2991,"la2":30.254,"lo1":-89.0895,"lo2":-89.0444,"dy":0.0017,"dx":0.0017,"nx":28,"ny":28,"refTime":"2025-06-13T21:00:00:Z","depth":0,"parameterNumber":3,"parameterNumberName":"V-component_of_WINDS"},"data":[0,0,0,0,0,0,0,0,0,0,0,0,0,0,0,0,0,0,0,0,0,0,0,0,0,0,0,0,0,0,0,0,0,0,0,0,0,0,0,0,0,0,0,0,0,0,0,0,0,0,0,0,0,0,0,0,0,0,2.8969,2.897,0,2.9087,2.9088,2.909,2.9163,2.9164,2.9164,2.9164,2.9277,2.928,2.9283,0,0,0,0,0,0,0,0,0,0,0,0,0,2.8798,2.88,2.8969,2.897,2.8972,2.9087,2.9088,2.909,2.9163,2.9164,2.9164,2.9165,2.9277,2.928,2.9283,0,0,0,0,0,0,0,0,0,0,0,0,0,2.8889,2.8801,2.8969,2.9022,2.9028,2.9087,2.9089,2.909,2.9163,2.9164,2.9164,2.9165,2.9276,2.9279,2.9283,2.9295,0,0,2.9295,2.9297,0,0,0,0,0,0,0,0,2.8884,2.8895,2.9013,2.9019,2.9026,2.9111,2.907,2.9159,2.9163,2.9111,2.9164,2.9165,2.9221,2.9229,2.925,2.93,2.9305,2.9296,2.9298,2.93,2.9301,0,0,0,0,0,0,0,2.8877,2.8891,2.9015,2.9014,2.9022,2.9038,2.9051,2.9087,2.9161,2.9116,2.9122,2.9135,2.9225,2.9246,2.9253,2.9307,2.9295,2.9299,2.9301,2.9303,2.937,2.937,0,0,0,0,0,0,2.8864,2.8885,2.9012,2.9019,2.8955,2.904,2.9056,2.9083,2.9161,2.9174,2.9134,2.9138,2.9239,2.9249,2.9257,2.9275,2.93,2.9303,2.9306,2.9371,2.937,2.9369,0,0,0,0,0,0,2.886,2.8874,2.9007,2.8954,2.8972,2.9043,2.9073,2.9085,2.9107,2.9175,2.9188,2.9143,2.924,2.9252,2.9285,2.928,2.9305,2.9309,2.9371,2.937,2.937,2.9312,0,0,0,0,0,0,2.8855,2.8873,2.888,2.8953,2.8974,2.9035,2.9072,2.9087,2.9114,2.912,2.9187,2.9198,2.9241,2.9279,2.9289,2.9286,2.9312,2.9372,2.9371,2.937,2.9314,2.9309,2.9304,0,0,0,0,0,2.8848,2.8858,2.888,2.8895,2.8985,2.9035,2.9046,2.9098,2.9114,2.912,2.9164,2.9196,2.9279,2.9282,2.9294,2.9292,2.9373,2.9371,2.937,2.9316,2.931,2.9304,0,0,0,0,0,0,2.8779,2.8868,2.8894,2.8928,2.8974,2.9047,2.9057,2.909,2.913,2.9133,2.9193,2.9207,2.9234,2.9266,2.9268,2.9306,2.9329,2.933,2.9285,2.9279,2.9274,2.9265,2.9315,0,0,0,0,0,2.8769,2.8804,2.8879,2.8901,2.8923,2.8986,2.9009,2.9045,2.9094,2.9112,2.9159,2.9202,2.9238,2.926,2.9297,2.9319,2.9333,2.9323,2.9318,2.9314,2.9314,2.9326,2.9322,2.9365,2.9365,2.9365,0,0,2.8746,2.8799,2.8817,2.8888,2.8928,2.8961,2.9001,2.9034,2.9058,2.9117,2.9152,2.9186,2.9239,2.9266,2.928,2.9294,2.9305,2.9312,2.9308,2.9311,2.9324,2.932,2.9316,2.9364,2.9364,2.9364,0,0,2.8721,2.8765,2.8789,2.8828,2.8888,2.8929,2.8934,2.9003,2.9029,2.9066,2.911,2.9137,2.9198,2.9234,2.9259,2.9246,2.9276,2.9256,2.9229,2.924,2.9237,2.9234,2.9228,2.9225,2.9255,2.9255,2.9255,0,2.8684,2.8738,2.8796,2.8826,2.8855,2.8912,2.8934,2.8968,2.9035,2.9053,2.9067,2.9144,2.9184,2.9219,2.9216,2.9235,2.9241,2.9248,2.9233,2.9231,2.9229,2.9224,2.9222,2.9252,2.9253,2.9253,2.9253,0,2.8689,2.8725,2.8736,2.8803,2.8833,2.8859,2.8918,2.8941,2.8973,2.9012,2.9047,2.9096,2.9143,2.9154,2.9185,2.9193,2.9199,2.9223,2.9247,2.9221,2.9217,2.9216,2.9248,2.9249,2.925,2.9251,0,0,2.8625,2.8723,2.8726,2.8756,2.8826,2.8854,2.888,2.8929,2.8947,2.8991,2.9013,2.9063,2.9085,2.9114,2.9149,2.9159,2.9143,2.9181,2.9183,2.9172,2.9153,2.9134,2.9131,2.9164,2.9164,2.9164,2.9148,0,2.861,2.8665,2.8717,2.8752,2.8785,2.8838,2.8861,2.8904,2.8941,2.8971,2.9011,2.9045,2.9072,2.909,2.9102,2.9143,2.914,2.9145,2.9183,2.9184,2.9168,2.913,2.9111,2.9094,2.9147,2.9147,2.9147,0,2.86,2.8644,2.8683,2.8749,2.8764,2.8785,2.8832,2.8862,2.8911,2.8937,2.8969,2.9006,2.9034,2.9055,2.9093,2.9095,2.9113,2.9135,2.9136,2.9141,2.9164,2.9133,2.909,2.9086,2.9145,2.9145,2.9145,0,2.8548,2.8617,2.8649,2.8673,2.8751,2.8763,2.8795,2.8846,2.8871,2.8911,2.8928,2.897,2.8992,2.9022,2.9069,2.9081,2.9101,2.9127,2.9121,2.912,2.9123,2.9122,2.9081,2.9136,2.9136,2.9136,2.9136,0,2.8526,2.8547,2.8627,2.8646,2.8671,2.8728,2.875,2.8786,2.883,2.8855,2.8902,2.8924,2.8985,2.9013,2.905,2.9074,2.9084,2.9104,2.9113,2.9099,2.9097,2.9112,2.9114,2.9135,2.9135,2.9135,2.9135,0,2.8472,2.8527,2.8565,2.8635,2.8653,2.8668,2.8726,2.8745,2.8785,2.8816,2.8826,2.8886,2.8922,2.8972,2.9022,2.9046,2.9065,2.908,2.9049,2.9055,2.9046,2.9046,2.9013,2.9011,2.9067,2.9066,2.9066,0,2.8454,2.8472,2.8544,2.8566,2.8598,2.8631,2.8658,2.8714,2.8739,2.8795,2.8807,2.8847,2.8882,2.8935,2.8981,2.9019,2.9035,2.9021,2.9041,2.9026,2.9034,2.9032,2.9033,2.9016,2.9015,2.9015,2.9014,0,2.8416,2.8441,2.8479,2.8526,2.8557,2.8595,2.8636,2.865,2.8714,2.8739,2.8777,2.8804,2.8856,2.8894,2.8938,2.8968,2.9,2.9007,2.9008,2.8994,2.8975,2.8984,2.9035,2.9008,2.9008,2.9009,2.9009,2.9009,2.8379,2.8397,2.845,2.849,2.8527,2.8563,2.8585,2.8627,2.8661,2.8709,2.8739,2.8775,2.8822,2.8885,2.8913,2.894,2.8953,2.8954,2.8954,2.8954,2.8948,2.8971,2.8948,2.8948,2.8949,2.8949,2.8949,0,2.8342,2.8379,2.8415,2.8472,2.8502,2.8533,2.8579,2.8601,2.8633,2.8675,2.8709,2.8751,2.8788,2.8837,2.8876,2.8888,2.8904,2.8896,2.8896,2.8901,2.8935,2.893,2.8883,2.8883,2.8883,2.8883,2.8883,2.8883,2.8326,2.8358,2.839,2.8439,2.8475,2.8513,2.8537,2.8569,2.8603,2.8649,2.8681,2.8714,2.8757,2.88,2.8834,2.8847,2.8858,2.8846,2.8863,2.8893,2.8899,2.8905,2.8901,2.8848,2.8848,2.8828,2.8828,2.8828]}]]